GFSSW_500_spd_123.txt.gz
Wind_Speed
34 34 37 38 38 38 35 33 32 31 31 30 32 33 33 35 35 36 37 38 39 41 43 44 46 45 44 44 45 45 48 45 43 41 39 32 34 34 36 40 44 48 46 49 45
38 35 33 35 38 39 38 39 37 35 34 34 34 36 36 37 39 40 41 41 43 43 45 46 46 45 45 46 49 49 50 50 45 44 45 41 39 38 41 44 45 48 48 51 53
38 37 34 33 34 37 39 39 40 40 40 39 38 38 37 38 39 39 41 42 43 45 46 48 49 49 50 50 50 50 50 50 51 49 48 48 43 41 43 46 47 48 50 50 52
40 38 37 35 36 37 37 40 42 43 43 42 41 42 41 42 42 42 43 43 44 45 46 47 47 48 49 50 51 54 54 54 53 52 54 53 49 48 49 46 50 54 52 51 53
46 43 41 38 36 38 39 39 42 43 43 44 44 43 42 45 48 50 50 49 49 47 47 47 48 48 50 50 49 54 53 51 52 53 54 55 55 55 51 50 52 55 56 55 56
41 42 42 40 39 37 39 40 41 42 45 45 47 48 48 49 47 49 50 50 50 48 49 50 50 51 54 53 52 54 56 57 52 53 56 58 58 59 47 51 55 57 59 58 58
39 41 38 42 42 39 40 42 42 41 41 43 46 48 47 49 48 50 49 45 44 46 47 49 51 53 54 55 56 58 60 59 55 58 60 62 63 60 47 51 53 60 61 63 61
42 42 43 44 45 44 44 45 44 44 46 48 46 49 49 48 48 49 44 43 44 47 48 48 49 52 55 60 58 62 65 68 56 62 66 68 69 56 58 59 57 59 63 65 66
45 43 43 42 41 40 44 49 50 49 51 50 49 48 49 48 46 48 44 43 43 46 48 51 55 56 59 64 65 69 72 76 71 73 75 76 80 62 70 67 65 63 61 65 66
45 48 46 44 41 40 42 46 46 46 48 49 50 46 44 44 44 42 44 45 44 47 49 52 56 60 65 72 74 79 86 87 90 81 87 89 94 84 78 80 73 69 64 65 66
51 45 41 44 40 37 40 44 44 43 44 45 46 44 43 40 41 41 43 43 47 51 54 57 61 66 72 81 86 90 93 98 97 89 96 98 99 100 88 87 81 74 68 63 67
54 50 46 46 43 48 48 46 44 45 43 43 43 42 40 39 39 42 43 45 47 51 56 61 67 73 78 82 79 81 86 77 58 54 58 74 95 96 91 91 89 78 72 66 64
53 47 45 40 40 44 44 46 43 44 43 40 40 39 39 40 40 43 42 43 48 53 59 63 69 73 73 61 47 47 48 49 58 47 54 57 65 83 84 87 90 85 71 68 62
60 56 51 42 44 44 47 46 45 46 42 38 39 38 37 35 39 41 42 46 51 56 61 63 59 55 36 31 46 40 44 53 56 61 64 56 68 65 63 74 79 82 73 65 62
54 56 51 42 43 43 45 42 43 44 38 32 31 32 32 34 37 41 44 46 53 57 58 46 42 34 30 37 47 50 49 48 58 51 46 45 53 44 28 38 65 68 63 55 60
42 39 41 39 40 39 37 36 33 32 30 25 25 26 29 32 35 39 44 50 53 47 40 33 29 28 35 43 36 34 37 44 36 30 35 16 35 18 19 15 39 36 41 50 55
38 44 38 39 36 33 35 31 27 24 20 22 21 24 26 30 34 38 43 45 37 27 23 23 24 28 36 34 31 36 32 18 20 14 13 4 10 15 14 15 29 47 45 42 44
39 39 38 33 33 35 31 24 25 18 17 17 19 21 24 29 32 37 38 25 23 16 17 20 21 27 33 39 28 21 17 18 12 14 9 8 6 21 20 20 27 40 45 44 38
39 36 36 34 34 28 26 25 18 15 15 15 17 20 24 26 29 29 23 14 21 22 22 28 21 20 28 24 13 6 13 15 8 8 6 3 3 10 21 19 26 39 44 41 39
44 39 32 30 29 28 30 20 16 15 14 14 16 16 18 21 24 20 12 11 18 17 24 26 23 20 21 14 9 11 10 13 18 13 4 1 8 11 17 22 17 12 19 44 46
44 36 30 28 28 32 22 18 17 14 14 13 11 11 13 15 13 5 7 11 15 12 19 25 24 17 17 11 10 10 13 13 13 11 1 4 4 9 17 21 21 20 25 27 29
32 31 30 29 33 28 21 19 18 15 13 11 6 8 10 9 7 5 8 11 14 18 17 19 17 15 14 3 3 11 15 19 16 12 5 9 6 13 13 22 23 24 28 29 30
29 28 30 34 29 25 22 21 17 13 12 8 3 6 6 6 6 7 8 10 15 17 16 13 14 15 10 15 16 12 17 14 14 17 13 8 4 14 20 16 24 30 34 36 36
30 32 32 32 28 22 23 19 15 13 11 5 4 5 3 3 3 6 9 12 14 17 17 17 11 12 8 11 13 9 16 20 15 15 9 2 11 9 21 23 20 31 29 25 27
34 33 30 28 23 25 23 18 14 14 10 7 7 5 1 4 7 12 14 17 16 15 16 14 10 8 4 2 11 12 11 19 18 17 5 2 4 6 4 15 20 37 33 34 28
34 33 30 27 26 24 21 18 17 14 11 12 10 6 6 5 7 10 13 13 14 18 22 12 16 10 4 6 5 14 11 19 16 15 12 14 3 7 11 11 9 4 19 20 25
34 31 28 28 25 23 22 20 18 18 16 13 11 10 10 8 8 10 12 13 14 14 22 12 14 14 11 9 5 5 6 11 12 13 16 17 12 6 7 7 7 11 2 10 15

GFSSW_500_spd_129.txt.gz
Wind_Speed
38 37 38 36 35 31 30 28 30 30 29 29 29 29 30 29 28 28 28 30 31 31 31 31 31 32 33 34 36 37 39 39 38 38 37 36 33 34 34 36 39 42 42 42 43
33 32 34 36 38 37 36 34 32 31 29 28 29 31 33 32 31 30 30 32 33 33 34 33 34 35 37 37 39 39 40 40 42 42 42 40 37 35 35 38 39 42 44 45 45
38 37 32 36 38 39 39 33 32 30 28 29 29 30 32 34 33 33 33 33 34 35 36 37 37 37 38 38 39 40 42 42 45 46 46 46 45 43 39 40 42 42 44 47 48
34 36 35 36 36 36 33 32 33 34 30 29 30 33 33 35 36 35 34 33 34 37 38 39 39 41 43 44 44 46 45 46 47 48 49 49 49 46 44 44 43 44 44 48 49
31 29 30 32 34 31 33 36 35 36 34 32 31 32 36 37 37 38 37 37 37 38 37 38 39 42 44 43 44 46 47 49 50 51 52 53 51 52 49 43 44 45 47 50 51
34 32 34 31 31 29 29 31 29 29 31 33 32 32 33 36 36 39 40 41 41 41 39 38 40 40 41 45 48 48 50 48 47 50 52 53 52 55 52 50 47 48 48 49 54
38 36 35 36 35 34 32 34 32 31 32 31 34 36 35 36 38 38 40 40 40 41 42 43 44 44 44 46 49 50 52 51 50 52 55 57 55 56 58 58 56 50 51 51 51
41 40 38 38 35 35 33 35 35 40 35 31 31 33 34 37 39 41 43 43 43 45 47 49 47 44 45 48 51 50 51 53 53 56 57 60 55 60 63 65 65 64 58 56 55
50 45 45 43 39 39 37 37 36 38 34 34 35 34 32 33 36 39 41 41 42 43 43 44 43 42 43 46 47 49 51 51 53 56 62 63 62 66 68 69 70 72 71 65 59
58 53 51 51 46 43 40 40 40 38 37 35 35 34 35 35 32 32 35 38 40 42 42 42 43 43 43 44 46 48 50 51 55 62 66 68 68 68 72 79 79 79 81 80 72
57 56 55 54 54 46 44 45 43 41 39 37 36 35 37 38 43 43 41 38 38 40 41 42 41 43 43 45 47 51 53 55 56 64 71 73 78 77 77 86 92 91 91 89 85
61 60 56 49 50 48 49 48 45 43 40 37 38 39 38 39 39 41 43 42 39 39 39 39 40 42 43 44 48 53 56 61 57 66 73 72 76 79 85 95 103 107 106 105 100
69 63 60 53 49 48 49 48 45 45 45 42 41 42 45 44 45 44 44 42 41 39 38 38 39 41 43 46 49 55 59 61 64 63 62 64 59 71 56 70 85 84 86 95 105
64 65 63 63 63 55 50 44 46 46 43 43 44 48 47 45 44 43 42 40 40 37 35 36 39 41 44 47 50 58 55 49 43 42 45 40 51 34 22 29 33 35 43 51 71
63 60 61 59 56 50 47 47 47 46 43 43 43 43 43 42 40 38 35 36 33 30 32 36 38 41 46 50 52 47 42 27 30 23 24 28 35 16 26 35 44 52 45 39 39
53 57 51 56 56 55 56 48 50 46 47 47 47 45 44 42 36 35 31 29 28 29 33 34 37 41 44 40 40 35 23 30 26 20 22 29 33 18 40 44 42 35 25 25 25
55 53 54 53 54 53 50 54 50 51 45 46 46 44 42 39 34 28 29 26 26 27 31 33 34 35 35 33 28 25 27 29 17 19 27 34 30 37 39 39 45 32 20 19 12
50 50 45 51 57 55 45 47 33 42 47 47 38 38 37 34 31 24 23 24 24 26 28 27 26 23 25 24 20 21 23 24 20 26 21 32 34 37 35 27 37 31 26 13 5
54 47 51 51 50 52 57 42 40 46 43 39 36 37 29 24 25 21 23 22 23 23 23 18 19 18 19 16 16 17 21 24 23 20 26 24 34 37 27 22 28 27 18 5 8
49 49 52 47 49 54 51 45 43 46 38 37 35 31 26 25 19 21 19 20 19 17 14 10 10 15 18 21 19 17 21 19 19 22 30 29 38 32 25 19 22 14 14 12 15
45 53 49 57 51 58 51 45 45 44 34 35 30 26 24 21 21 19 18 14 11 8 5 6 8 14 19 21 19 14 15 18 18 19 27 37 40 33 24 13 21 16 8 2 10
42 52 46 52 55 53 56 55 49 40 31 30 26 24 21 21 18 17 12 9 7 7 9 12 15 17 23 22 21 18 17 20 19 18 19 29 21 23 18 11 18 16 8 10 11
42 42 44 39 38 37 40 38 36 25 25 27 26 23 23 20 16 14 10 8 6 6 8 12 16 16 21 22 22 18 14 18 13 10 13 17 16 16 14 12 15 15 8 4 8
38 39 40 40 39 43 37 35 30 28 31 30 24 23 21 17 15 13 11 9 6 8 12 16 20 22 24 24 22 18 10 10 9 6 6 14 15 15 11 5 12 16 9 15 21
33 33 34 33 38 34 33 30 26 32 33 29 24 24 20 17 15 13 13 8 8 11 14 19 24 28 27 20 17 12 11 7 7 15 11 13 14 15 14 21 15 10 13 18 20
27 28 27 30 33 33 30 29 34 34 31 25 25 24 19 17 15 14 11 8 8 11 15 20 25 29 12 13 5 7 8 7 8 10 9 7 13 15 18 20 21 16 10 7 19
26 26 27 27 28 30 31 33 32 32 27 25 25 22 19 18 16 13 10 7 8 12 16 20 23 16 5 7 6 9 4 7 4 3 5 9 7 8 14 17 13 16 15 6 11

GFSSW_500_spd_132.txt.gz
Wind_Speed
45 44 41 40 38 37 34 32 30 30 26 28 27 27 25 27 29 29 29 29 27 26 26 26 25 26 27 27 28 30 32 31 31 33 36 32 33 34 35 35 37 40 41 41 41
41 38 37 34 31 31 30 33 33 36 32 31 28 27 25 26 29 30 31 31 29 29 29 29 28 30 31 30 31 33 34 34 36 37 37 38 35 36 37 37 38 38 41 43 45
39 35 33 33 33 31 32 32 35 36 34 29 29 25 26 25 26 30 31 32 33 32 32 31 31 31 32 34 34 35 36 37 38 37 38 40 41 41 40 40 41 40 41 44 45
34 33 33 32 34 35 33 32 30 30 30 29 31 30 28 26 28 27 29 31 33 34 33 32 33 34 35 36 37 40 39 41 42 42 44 44 45 42 43 41 39 45 45 45 47
32 31 26 28 30 29 31 32 30 30 31 32 32 31 30 30 29 30 30 30 30 32 33 35 34 35 36 36 37 38 38 38 39 39 41 41 42 47 44 44 46 44 44 45 48
36 34 30 29 29 28 28 27 25 25 25 26 27 29 29 30 29 32 32 32 32 33 34 36 36 36 37 37 39 40 40 41 41 43 44 44 44 46 47 43 42 45 46 46 45
38 38 35 32 33 31 29 30 30 27 27 28 26 27 28 31 31 31 31 32 33 34 35 37 39 42 43 43 42 43 44 46 46 47 49 51 50 53 52 53 50 47 48 47 46
44 40 40 37 37 33 32 31 31 31 31 30 30 32 33 32 29 30 29 29 32 34 36 40 42 45 46 47 48 44 47 46 51 46 49 52 51 54 57 60 60 59 54 54 51
51 47 47 43 40 40 37 34 34 35 34 32 33 34 34 32 31 30 30 30 26 25 28 32 38 43 43 42 42 43 42 47 48 48 50 52 50 54 57 62 62 64 65 64 59
57 55 53 51 48 48 42 41 40 39 39 37 37 36 38 37 35 34 33 30 34 38 38 39 39 40 40 39 40 42 43 43 48 50 51 53 50 54 58 65 66 68 70 71 71
64 61 59 56 54 55 51 48 47 46 44 41 42 40 38 38 36 36 34 35 36 38 41 43 43 42 41 39 40 42 43 44 49 51 54 57 56 56 60 70 72 73 75 78 78
71 69 62 61 52 56 53 53 48 50 47 43 43 42 38 38 39 39 39 40 43 45 45 45 45 43 43 41 41 43 43 44 47 54 56 59 58 60 64 69 73 76 78 83 87
74 71 67 63 59 57 52 46 48 47 46 45 46 44 42 42 41 39 42 44 44 44 45 44 44 42 42 40 40 40 43 45 48 56 59 62 59 53 42 57 54 36 43 51 62
75 73 67 65 59 54 62 52 51 54 43 46 44 45 44 42 39 41 42 41 42 42 40 39 40 38 35 35 37 40 45 49 51 54 48 45 47 36 30 37 28 38 40 43 48
72 73 68 64 57 65 56 57 57 52 47 51 48 44 44 39 38 39 41 41 39 37 37 33 33 32 30 35 38 41 44 47 45 42 41 30 30 25 29 27 35 39 38 46 46
62 64 61 59 51 61 64 56 52 51 51 48 46 45 40 40 40 42 45 41 37 34 32 29 25 29 32 34 38 42 43 39 28 25 25 22 32 37 25 38 43 35 36 36 35
60 56 53 48 47 49 47 52 50 51 53 52 49 43 44 42 41 42 40 37 32 28 25 24 26 29 29 31 33 36 34 24 22 24 17 23 28 30 35 37 36 38 41 36 35
57 57 58 52 49 54 49 53 54 48 48 51 48 44 47 43 43 38 36 35 29 22 24 25 26 25 25 26 27 25 21 22 21 24 23 17 24 30 40 38 31 35 36 32 20
51 56 59 60 55 53 52 52 49 47 50 39 35 34 36 42 42 36 33 27 23 23 22 21 23 21 20 21 20 20 19 18 22 21 22 18 26 35 33 36 29 33 35 22 14
44 48 54 51 62 53 54 51 51 47 47 55 46 40 36 40 38 34 29 23 21 20 18 15 15 17 17 18 16 17 16 14 15 21 21 18 28 33 33 23 21 26 26 10 7
45 47 46 51 56 58 47 53 52 54 47 45 44 40 30 36 34 31 25 20 17 17 16 12 12 16 17 19 21 19 22 17 17 19 17 19 26 29 32 26 22 25 30 15 6
49 41 52 51 50 56 45 43 42 43 42 41 42 37 36 36 31 24 20 17 18 15 13 13 13 16 20 19 20 20 22 18 14 14 12 12 16 25 30 31 30 26 24 4 4
43 46 47 45 51 55 47 46 41 46 47 43 40 39 36 31 27 22 17 17 15 14 14 13 14 18 19 20 21 22 22 17 14 12 8 12 18 23 22 26 30 24 20 19 2
40 47 44 49 52 44 49 44 51 47 47 43 43 40 34 27 21 18 16 17 14 13 13 16 17 17 18 21 23 20 19 17 13 5 9 11 14 14 22 27 27 24 23 16 15
41 37 38 35 45 51 54 48 48 51 41 40 35 34 26 22 21 19 17 15 12 12 14 14 14 16 22 25 15 13 10 14 9 11 11 12 13 16 22 21 23 21 25 24 19
33 31 38 33 34 36 38 39 35 32 31 33 31 25 23 22 22 19 17 13 11 13 13 11 13 18 19 9 5 6 2 6 13 9 10 11 13 18 18 17 16 16 15 20 19
33 35 32 32 33 30 26 26 27 30 35 34 29 26 23 23 21 19 14 12 12 12 11 11 12 16 10 5 7 8 11 10 10 12 10 10 14 11 13 13 11 12 15 15 15

GFSSW_500_spd_135.txt.gz
Wind_Speed
45 46 46 43 41 41 38 35 37 35 32 31 30 27 27 28 26 29 30 29 29 29 29 28 26 26 26 27 27 28 29 27 27 33 33 32 28 32 35 33 34 37 36 38 39
45 44 42 41 39 37 36 33 33 34 32 33 33 33 32 30 27 24 29 30 30 29 29 29 29 28 29 29 29 30 32 28 35 32 35 34 32 31 36 35 36 37 40 41 42
41 40 39 37 35 34 33 31 33 34 34 34 32 32 30 30 28 23 23 27 30 31 31 31 32 31 32 32 33 31 33 34 34 37 35 38 36 34 36 38 37 41 42 40 41
40 37 36 32 32 33 32 33 34 33 32 31 30 29 28 29 31 26 25 24 25 29 30 31 32 33 33 35 37 34 37 38 39 41 40 41 43 41 42 40 41 43 41 41 44
37 33 33 31 28 28 30 31 33 35 35 31 32 32 31 31 28 29 28 27 25 25 27 29 30 31 32 34 37 38 36 40 39 40 41 41 40 41 38 39 41 42 45 45 45
38 36 37 34 32 30 27 25 26 26 25 26 28 29 29 29 26 27 28 28 28 28 28 27 29 30 31 32 34 37 37 40 41 43 43 43 42 43 43 43 38 38 42 43 43
41 43 39 38 35 31 32 31 28 28 27 27 28 27 26 24 22 23 25 27 28 29 30 31 31 32 32 34 35 39 42 42 44 46 44 47 45 45 51 49 41 43 42 43 45
48 47 38 38 38 34 34 34 30 31 32 31 29 29 30 29 26 25 26 27 28 28 27 27 27 26 28 32 35 38 43 45 49 48 44 48 47 44 51 53 55 53 46 47 48
53 51 49 42 43 41 37 40 37 33 34 33 34 31 32 30 28 28 28 28 29 29 29 25 28 32 32 34 36 41 41 46 47 52 50 47 50 48 50 50 55 56 56 57 53
57 56 55 51 48 48 44 44 43 40 38 39 39 38 34 33 32 31 30 30 32 33 30 31 32 33 36 38 39 41 47 48 46 47 50 48 46 49 53 55 57 57 60 61 61
63 61 61 59 54 54 51 49 49 46 45 44 43 44 40 38 35 35 34 33 34 36 38 40 40 43 44 47 46 46 46 48 49 48 49 48 48 48 55 59 60 61 63 65 67
71 69 65 65 62 59 59 54 52 47 52 48 48 50 46 43 41 38 37 36 37 39 41 43 45 44 44 45 47 46 46 47 46 49 48 47 45 48 50 62 64 65 67 69 70
74 75 73 70 70 65 63 61 54 46 45 54 52 50 45 44 46 41 39 36 40 42 41 42 44 42 43 42 43 43 46 45 43 42 44 47 43 48 44 63 55 53 63 70 69
78 77 77 76 74 69 66 62 58 55 62 53 48 51 44 44 43 44 41 40 41 41 41 41 42 42 39 39 39 40 39 37 39 43 46 49 48 42 51 50 38 45 51 58 59
84 78 76 74 71 67 59 58 60 56 44 53 51 43 41 42 44 42 42 41 40 39 41 44 43 39 37 36 36 33 32 34 39 45 49 38 47 26 47 35 37 45 46 48 43
77 73 63 69 68 62 59 59 59 56 63 52 50 46 44 44 43 41 41 39 39 43 43 42 37 35 33 28 28 31 34 37 40 42 34 23 25 31 35 32 39 39 42 40 43
56 58 55 61 59 57 57 54 60 58 60 62 56 57 48 45 44 39 39 40 43 42 41 35 34 29 27 28 29 31 31 29 29 26 19 18 23 31 28 35 45 41 41 38 38
51 49 54 59 60 60 58 52 60 55 69 68 62 53 46 45 47 49 45 41 43 43 36 33 27 26 26 26 27 26 27 27 28 17 25 25 23 25 30 36 43 38 32 34 40
49 48 51 56 61 62 62 64 58 53 56 57 52 44 44 44 43 41 38 39 42 37 32 27 26 24 25 24 23 22 20 22 23 21 23 13 25 28 28 35 39 33 31 31 42
47 44 49 53 58 61 63 60 57 59 50 48 39 42 40 40 34 31 31 38 38 32 27 25 25 23 22 22 21 18 21 21 22 21 19 12 26 23 25 31 29 28 24 28 35
45 48 49 54 54 58 59 58 62 45 47 35 36 41 42 42 41 41 43 36 34 27 24 24 21 20 21 19 21 22 22 24 22 19 20 22 23 21 24 31 32 35 29 25 31
46 47 48 52 55 58 59 48 52 47 52 44 39 42 42 40 39 38 34 35 31 24 21 18 17 19 21 21 22 25 28 27 24 17 16 23 24 21 23 25 30 31 34 26 28
42 43 45 52 51 50 52 56 59 53 48 53 49 50 42 41 38 35 34 31 25 23 19 17 17 18 22 23 26 29 28 26 25 18 17 19 23 22 21 23 26 30 31 28 23
40 42 45 49 51 47 52 47 50 48 46 50 46 46 45 42 38 34 32 25 21 21 19 18 16 18 21 23 28 33 30 25 22 17 19 21 22 23 21 21 25 23 29 27 27
41 37 41 51 42 48 46 41 52 53 49 39 43 42 38 38 38 36 28 22 23 20 17 15 16 17 18 23 27 22 18 15 18 20 23 21 20 20 20 21 20 19 18 25 28
38 39 34 45 37 40 40 50 45 47 50 44 44 42 42 40 35 24 23 24 21 18 15 13 13 14 17 21 15 4 10 11 10 20 17 20 17 16 18 16 18 15 16 17 21
34 33 37 34 35 43 36 40 48 50 49 46 41 34 34 36 29 26 26 23 20 17 13 11 10 12 15 14 7 8 10 12 14 12 17 22 18 17 19 20 18 16 18 18 18

GFSSW_500_spd_138.txt.gz
Wind_Speed
42 41 40 41 42 42 42 42 39 39 37 35 33 33 31 29 28 25 27 28 30 30 31 31 30 28 28 27 25 26 27 22 21 23 31 33 32 28 32 34 34 34 36 34 37
41 41 39 40 41 40 38 38 37 37 36 34 32 31 32 32 32 27 29 27 28 31 31 32 32 31 29 28 28 29 29 24 27 34 32 28 30 28 33 34 34 33 38 40 36
42 39 39 37 35 36 35 34 33 34 34 34 33 32 33 34 34 23 27 26 24 26 29 32 33 31 30 32 30 32 31 31 32 36 35 33 32 36 35 38 36 39 40 41 39
41 40 39 36 35 33 32 32 32 32 33 33 34 33 32 31 36 26 26 26 26 25 25 27 30 31 31 32 32 32 32 34 35 37 38 40 40 40 40 39 41 43 43 42 41
37 37 38 38 32 30 29 29 31 31 32 33 36 35 32 30 30 30 27 28 28 27 26 25 25 27 30 31 31 32 31 33 35 36 39 40 40 40 35 40 43 41 42 42 44
37 36 40 41 36 31 31 29 28 28 30 24 22 27 34 34 26 30 30 28 28 26 25 26 26 25 26 28 30 30 30 30 32 34 37 38 41 41 43 44 42 38 40 43 44
40 38 41 39 38 36 33 33 30 31 28 26 24 21 22 25 23 21 24 22 23 23 23 24 26 27 26 28 29 30 31 31 31 35 33 35 36 37 45 47 44 42 44 44 45
46 46 50 54 38 40 39 36 33 33 33 30 28 28 27 26 26 25 25 25 25 23 22 22 24 25 27 27 25 27 31 31 33 32 36 36 36 38 40 45 46 45 41 44 50
51 52 53 51 54 36 41 38 37 36 34 33 31 30 30 24 27 27 26 26 25 24 23 23 25 28 27 29 29 31 33 37 39 42 46 46 44 44 46 44 47 53 58 57 51
61 57 57 54 52 46 50 50 43 42 39 38 36 35 34 28 29 30 29 29 29 27 26 26 27 29 33 37 32 35 40 43 45 46 48 51 51 51 52 53 56 57 57 58 57
64 61 60 59 57 55 58 53 52 49 44 42 42 40 41 38 35 36 33 34 33 32 31 30 31 34 38 39 40 40 39 41 44 48 49 50 51 51 55 56 58 60 59 57 60
68 64 63 63 62 60 60 60 59 53 52 44 47 45 46 44 44 42 41 40 38 36 36 35 34 35 38 40 42 43 42 44 46 46 48 46 44 49 50 55 60 58 55 58 62
72 70 67 69 69 67 66 66 64 59 57 57 50 50 48 49 47 45 44 44 43 39 38 39 37 39 39 39 40 41 43 45 44 43 44 45 43 46 46 55 57 54 56 61 64
76 73 72 72 75 71 69 68 65 61 58 52 56 52 51 46 45 47 45 41 39 37 38 39 40 39 41 41 41 43 46 44 43 43 40 40 39 38 43 56 52 48 49 53 55
75 74 74 70 73 73 71 65 63 60 54 59 60 56 53 55 57 49 41 37 37 37 35 38 40 41 41 44 46 44 43 41 38 37 36 37 41 37 49 49 43 40 39 42 47
70 75 74 68 66 71 70 65 62 60 62 64 61 51 52 41 40 44 39 38 38 37 39 38 42 40 42 44 42 40 39 34 33 34 34 30 29 35 43 41 37 41 39 43 52
63 66 57 55 54 58 62 61 58 64 61 59 60 52 53 56 48 50 38 38 40 38 37 38 40 42 43 41 39 36 33 31 29 25 25 22 23 39 41 43 44 37 41 49 46
59 57 55 49 47 52 58 63 63 61 57 57 57 63 58 53 53 54 44 45 44 43 43 45 47 44 41 36 36 32 28 28 30 28 28 25 37 44 41 32 33 33 42 46 40
57 59 57 53 48 48 56 64 66 57 56 53 54 52 46 57 61 54 49 39 41 41 37 40 41 41 35 34 29 29 26 27 28 29 30 21 28 28 30 30 31 30 36 44 37
58 59 60 55 50 49 57 65 60 58 54 55 55 54 51 53 53 49 45 42 42 31 29 32 32 34 32 30 27 27 27 25 26 29 30 27 28 30 31 33 30 29 35 38 37
55 58 56 53 52 54 59 57 56 57 56 59 49 46 55 51 43 40 42 39 34 30 31 29 29 33 28 26 25 26 26 25 27 28 32 31 32 34 28 29 29 26 31 36 35
54 59 55 52 56 55 54 50 54 53 55 55 60 46 49 49 40 39 40 39 36 35 33 32 27 30 25 25 22 24 27 29 32 31 31 32 36 33 28 28 28 29 29 31 34
47 53 53 50 53 49 52 50 50 48 49 52 58 51 46 46 38 42 42 37 35 34 32 28 29 26 24 23 23 24 26 28 31 33 29 31 34 33 29 31 32 27 25 25 27
36 45 47 48 48 47 46 45 42 42 43 54 51 38 33 30 35 34 29 29 30 31 25 26 24 21 23 22 23 23 26 31 33 38 36 30 29 24 24 27 29 27 23 22 24
35 37 35 36 41 39 41 41 44 42 47 44 43 39 40 37 37 40 41 35 35 31 24 22 21 22 21 20 17 21 26 29 29 24 24 27 28 28 26 27 24 22 22 21 23
35 33 33 30 30 31 36 37 40 41 40 39 33 39 37 35 39 41 38 35 27 23 23 23 23 20 18 17 17 18 19 11 10 15 20 23 24 25 27 25 24 23 23 21 20
28 18 29 25 24 29 31 32 37 35 38 38 38 37 39 41 32 37 36 32 28 27 26 23 20 18 16 14 14 12 13 14 16 19 16 14 21 27 25 25 25 22 22 21 18

GFSSW_500_spd_141.txt.gz
Wind_Speed
35 41 40 39 38 37 37 37 38 39 39 37 35 34 32 30 31 25 28 25 24 25 25 28 30 30 29 29 28 28 26 22 20 25 31 32 36 37 31 24 24 26 31 33 34
43 45 39 38 38 37 37 36 37 40 37 36 35 33 32 31 28 26 29 29 28 26 26 28 30 30 30 30 29 28 27 24 26 29 31 24 23 26 27 29 26 30 33 34 32
37 38 38 37 37 36 35 36 35 36 36 31 32 31 31 32 31 29 30 31 29 27 25 26 28 29 31 31 31 31 28 28 28 30 32 25 28 31 32 29 33 36 36 38 38
43 45 42 40 38 36 34 34 34 33 31 30 29 30 31 31 30 28 32 31 29 26 25 25 25 25 27 30 32 31 29 29 27 30 32 32 31 33 33 35 39 41 42 41 42
43 33 40 40 39 34 33 32 33 33 30 29 29 30 30 31 27 28 29 29 29 28 27 26 26 25 25 26 28 29 29 26 27 29 32 33 33 31 33 37 37 37 39 39 42
51 53 37 35 37 34 34 33 31 30 31 28 26 26 26 26 22 29 30 28 29 27 27 26 27 26 25 24 25 25 26 26 26 28 30 32 29 32 33 34 37 37 38 43 46
45 48 41 39 31 35 35 37 34 31 31 31 28 25 21 20 16 21 21 22 26 25 22 21 23 23 21 22 22 24 24 25 26 25 27 28 26 29 31 30 30 32 37 42 44
51 48 46 47 38 40 38 43 26 33 34 35 32 29 25 22 21 21 19 21 22 22 23 21 22 22 20 21 22 24 25 24 26 29 31 32 32 33 33 36 39 40 40 39 41
54 52 50 49 49 46 46 52 50 36 38 39 37 33 29 25 24 22 23 21 22 21 23 23 23 23 23 25 24 27 26 30 31 34 37 36 34 34 32 40 42 44 46 44 42
57 56 56 53 54 52 50 51 49 51 40 40 39 35 34 29 27 25 26 25 23 23 24 26 26 25 27 27 27 30 33 33 36 37 38 38 41 43 45 45 44 47 50 53 53
60 59 58 59 57 58 58 57 53 53 49 41 42 38 38 37 31 31 30 30 28 28 29 30 29 29 31 30 30 32 34 37 36 36 39 41 39 46 48 47 49 49 51 51 50
65 62 61 62 61 61 61 62 61 55 56 41 42 42 42 44 38 37 37 35 36 34 35 37 34 36 34 33 34 35 36 36 38 38 40 40 42 47 49 51 53 52 50 48 50
65 65 65 64 64 64 62 62 63 64 62 60 54 50 47 48 45 42 42 41 41 40 38 39 37 38 37 36 37 37 37 39 39 39 41 43 44 44 52 52 50 47 48 50 51
63 64 64 64 66 66 65 61 63 66 68 63 59 55 52 52 52 46 47 44 41 36 36 39 33 36 34 34 36 38 38 41 42 44 42 40 41 44 52 50 45 44 44 46 47
63 67 65 66 66 65 66 67 68 68 67 66 66 62 57 56 52 50 47 45 39 43 43 37 35 31 32 33 37 35 39 41 42 43 46 35 39 46 46 43 40 39 42 43 46
62 64 65 66 63 63 63 66 67 67 66 70 68 65 63 58 54 53 49 48 44 42 40 34 35 33 32 36 37 39 39 40 39 40 43 36 39 45 43 36 37 40 40 45 48
58 61 62 63 56 54 57 62 65 68 67 69 67 66 65 60 53 54 52 46 34 35 36 36 32 33 33 37 39 38 39 39 37 40 38 36 37 40 36 38 42 44 47 43 38
59 60 61 59 54 49 50 55 63 65 63 58 60 62 62 58 53 50 47 47 47 44 44 41 37 36 37 40 40 41 40 37 38 36 34 31 36 35 36 38 39 37 36 36 36
58 61 60 55 54 51 52 57 57 54 53 51 57 63 58 55 52 51 48 42 44 43 46 45 34 36 35 33 33 36 34 35 33 32 32 32 33 35 34 36 37 38 40 39 35
56 59 57 53 51 54 57 58 51 44 46 51 51 55 53 50 49 50 47 45 44 49 51 46 41 36 30 26 26 31 34 32 31 31 30 32 35 37 35 35 36 38 37 37 35
54 57 50 51 55 58 60 54 47 43 46 47 45 48 49 49 48 49 45 42 45 46 44 37 36 35 30 23 25 30 34 31 28 28 31 34 37 37 32 32 31 31 35 35 34
53 54 51 52 58 59 57 47 44 43 45 46 44 43 43 42 48 48 45 46 46 39 32 34 33 30 28 28 30 29 29 27 27 28 30 34 38 35 37 35 36 30 34 35 33
52 55 54 52 58 53 47 45 44 46 44 44 44 47 46 41 41 46 36 36 47 37 39 34 35 31 33 33 26 28 25 25 27 27 31 35 39 39 36 33 35 31 30 30 31
50 54 55 52 53 52 46 39 38 41 42 41 37 39 43 43 46 42 34 39 36 35 31 34 30 29 30 28 23 22 21 25 25 27 31 34 34 33 30 31 33 31 29 31 28
40 48 41 29 40 40 39 37 36 37 40 39 37 37 42 40 35 43 38 46 44 32 27 23 27 30 27 24 23 24 22 22 24 23 26 24 20 22 25 28 28 28 29 29 30
29 34 31 20 23 28 33 34 35 35 35 36 31 32 32 34 29 30 23 19 24 23 25 29 29 26 25 23 21 21 19 19 17 21 19 19 23 25 24 25 24 26 26 28 26
28 22 28 22 22 22 24 28 28 32 32 28 30 29 27 24 29 33 27 27 25 25 27 29 26 26 23 23 21 18 18 17 16 18 20 21 21 21 20 20 21 22 24 24 25